Regional Weather Roundup
Issued by NWS Grand Forks, ND

Home | Current Version | Previous Version | Graphics & Text | Print | Product List | Glossary On
Versions: 1 2 3 4 5 6 7 8 9 10 11 12 13 14 15 16 17 18 19 20 21 22 23 24 25 26 27 28 29 30 31 32 33 34 35 36 37 38 39 40 41 42 43 44 45 46 47 48 49 50
000
ASUS43 KFGF 280731
RWRFGF
PRAIRIE TO PINES  WEATHER ROUNDUP
NATIONAL WEATHER SERVICE EASTERN NORTH DAKOTA/GRAND FORKS ND
200 AM CDT TUE APR 28 2015

 **SATELLITE DATA USED TO AUGMENT SKY COVER AT AUTOMATED STATIONS**
 *****  WEATHER ACROSS EASTERN NORTH DAKOTA  *****

CITY           SKY/WX    TMP DP  RH WIND       PRES   REMARKS
GRAND FORKS    MOCLDY    40  39  97 NW5       30.26S
GRAND FRKS AFB FOG       41  41 100 N5        30.27R VSB 1/2
GRAND FRKS NWS   N/A     41 N/A N/A N3          N/A
DEVILS LAKE      N/A     36  32  87 NW6       30.28S VSB 1/2
FARGO          RAIN      48  44  86 N13       30.23F
WAHPETON ARPT  CLOUDY    50  37  62 N10G16    30.22S
$$

 ***** WEATHER ACROSS CENTRAL AND WESTERN NORTH DAKOTA  *****

CITY           SKY/WX    TMP DP  RH WIND       PRES   REMARKS
BISMARCK       CLEAR     37  35  92 W6        30.33R
MINOT          CLEAR     41  36  82 SW10      30.28S
JAMESTOWN      PTCLDY    42  39  89 NW8       30.27R
MINOT AFB      CLEAR     39  39 100 W12       30.27S
GARRISON         N/A     38  35  89 SW5       30.30S
WILLISTON      CLEAR     40  35  83 S3        30.30S
DICKINSON      CLEAR     35  32  88 W6        30.31S
HETTINGER      CLEAR     31  30  96 NW5       30.34S
$$

 *****  OTHER AIRPORT OBSERVATIONS IN OUR AREA  *****

CITY           SKY/WX    TMP DP  RH WIND       PRES   REMARKS
WALHALLA       FAIR      36  36 100 W5        30.27S FOG
GRAFTON AIRPOR FOG       39  39 100 CALM      30.28R VSB<1/4
VALLEY CITY AR PTSUNNY   45  45 100 N7        30.27R
CANDO          FAIR      32  32 100 W6        30.28F FOG
CAVALIER APRT  FOG       36  36 100 W5        30.27S VSB 3/4
GWINNER          N/A     46  46 100 NW10      30.27S
SHEYENNE NWR     N/A     48  43  84 N6        29.95
ROLLA          NOT AVBL
 ***** THE ABOVE OBSERVATIONS ARE NON NWS ARE NOT QUALITY
       CONTROLLED AND MAY MIS-REPORT RAIN FOR SNOW...
$$

  *****  WEATHER ACROSS NORTHERN MINNESOTA  *****

CITY           SKY/WX    TMP DP  RH WIND       PRES   REMARKS
FLAG ISLAND    MOCLDY    43  41  93 N10       30.22S
WARROAD        CLOUDY    45  41  87 NW6       30.24S
ROSEAU         CLOUDY    46  41  81 N6        30.24S
HALLOCK        FOG       39  37  93 CALM      30.26S VSB<1/4
THF RVR FALLS  CLOUDY    45  43  93 N7        30.24S
BAUDETTE       LGT RAIN  44  41  89 NW9       30.22R
WASKISH        DRIZZLE   48  43  81 CALM      30.21R
CROOKSTON      LGT RAIN  45  43  93 N8        30.26R
$$
  *****  WEATHER ACROSS CENTRAL AND WEST MINNESOTA  *****

CITY           SKY/WX    TMP DP  RH WIND       PRES   REMARKS
FOSSTON        DRIZZLE   45  43  93 NW6       30.23S
BEMIDJI        CLOUDY    49  43  79 NW7       30.19S
PARK RAPIDS    PTCLDY    54  42  64 N10       30.16S
ELBOW LAKE     CLOUDY    51  42  71 NW9       30.20R
WADENA         PTCLDY    48  36  61 W5        30.17R
DETROIT LAKES  CLOUDY    50  43  76 NW10G17   30.22R
MOORHEAD       DRIZZLE   46  43  87 N13       30.24S
FERGUS FALLS   CLOUDY    52  39  62 N14       30.21R
MORRIS MN      MOCLDY    50  41  71 NW14      30.18S
STAPLES        CLEAR     43  32  65 NW3       30.15S
$$
  *****  WEATHER ELSEWHERE ACROSS MINNESOTA  *****

CITY           SKY/WX    TMP DP  RH WIND       PRES   REMARKS
DULUTH         PTCLDY    45  27  49 E3        30.14S
INTRNTL FALLS  CLOUDY    50  43  77 NW12      30.17R
ELY            PTCLDY    34  27  75 CALM      30.14S
CLOQUET        PTCLDY    36  27  69 CALM      30.14S
WHEATON        LGT RAIN  48  39  71 NW9       30.23F
BRAINERD       CLEAR     42  33  70 CALM      30.14S
HIBBING        PTCLDY    36  28  73 NW3       30.14S
ALEXANDRIA     PTCLDY    49  34  56 N6        30.18S
SAINT CLOUD    CLEAR     39  32  76 CALM      30.14S
MINNEAPOLIS    MOCLDY    52  30  43 SW3       30.15S
$$

  *****  WEATHER ACROSS SOUTH DAKOTA  *****

CITY           SKY/WX    TMP DP  RH WIND       PRES   REMARKS
SIOUX FALLS    CLEAR     42  33  70 CALM      30.20S
BROOKINGS      CLEAR     41  28  60 NE3       30.22S
WATERTOWN      PTCLDY    44  39  82 N7        30.22S
HURON          PTCLDY    47  41  80 NW9       30.25S
SISSETON         N/A     50  43  77 N13       30.23R
ABERDEEN       CLOUDY    48  43  82 N12       30.27S
MITCHELL       CLEAR     48  42  80 NW13      30.24S
PIERRE         CLOUDY    46  43  89 NW5       30.31S
MOBRIDGE       CLOUDY    41  39  93 N5        30.29R
RAPID CITY     CLOUDY    42  38  85 N5        30.34F
$$

  *****  SOME WEATHER IN NEARBY STATES *****

CITY           SKY/WX    TMP DP  RH WIND       PRES   REMARKS
GLASGOW MT     CLEAR     40  35  83 SE10      30.27F
GREAT FALLS MT CLEAR     43  32  65 S10       30.20S
CHEYENNE WY    CLOUDY    39  36  89 NE5       30.36S
SCOTTSBLUFF NE CLOUDY    46  41  82 N3        30.36S
OMAHA NE       MOCLDY    43  39  86 NW7       30.19R
DES MOINES IA  PTCLDY    49  37  63 N3        30.16S
DAVENPORT IA   CLEAR     41  33  73 SE5       30.12S
CHICAGO IL     CLEAR     39  33  79 CALM      30.13R
EAU CLAIRE WI  CLEAR     42  31  64 CALM      30.14S
LA CROSSE WI   CLEAR     47  40  76 CALM      30.13S
$$

  *****  SOME NATIONAL WEATHER *****

CITY           SKY/WX    TMP DP  RH WIND       PRES   REMARKS
LA GUARDIA NY  CLOUDY    51  38  60 NW12      29.72S
RALEIGH NC     CLEAR     42  36  79 CALM      29.93S
ATLANTA GA     CLOUDY    58  39  49 CALM      29.88S
NEW ORLEANS LA CLOUDY    66  63  90 E10       29.73F
OKLAHOMA CITY  CLOUDY    50  46  86 N13       30.05S
ALBUQUERQUE NM MOCLDY    48  32  53 SE12      30.25S
SALT LAKE CITY CLEAR     49  39  68 S8        30.23S
LOS ANGELES CA CLEAR     63  50  62 W5        29.96S
BOISE ID       CLEAR     51  30  44 SE7       30.20S
SEATTLE WA     PTCLDY    58  51  78 CALM      29.91F
$$

*** WEATHER ACROSS MANITOBA...SASKATCHEWAN AND ONTARIO ***
                ***ONTARIO***

CITY           SKY/WX    TMP DP  RH WIND       PRES   REMARKS
GERALDTON      PTCLDY    28  27  93 W2        30.12F
THUNDER BAY    CLEAR     30  28  93 W5        30.14F
SIOUX LOOKOUT  LGT RAIN  46  43  87 NW6       30.16R
TORONTO        PTCLDY    41  34  75 N13       30.01S
BIG TROUT LK   CLOUDY    39  37  93 W7        30.08F
PICKLE LAKE    NOT AVBL
DRYDEN         CLOUDY    46  43  87 NW8       30.18R
KENORA         MOCLDY    41  41 100 N7        30.22S
$$
                *** MANITOBA***

CITY           SKY/WX    TMP DP  RH WIND       PRES   REMARKS
BRANDON        PTCLDY    30  27  86 W3        30.26F
DAUPHIN        CLEAR     34  30  86 SW5       30.26S
ISLAND LAKE    CLOUDY    37  32  81 NW8       30.17S
PILOT MOUND      N/A     34  34 100 SW6         N/A
THE PAS        PTCLDY    32  28  86 SE6       30.21S
THOMPSON       CLOUDY    34  30  86 NW5       30.20S
WINNIPEG       FOG       28  28 100 N5        30.28S VSB 1   WCI  23
LYNN LAKE      MOCLDY    30  30 100 SW6       30.18R WCI  24
CHURCHILL      CLOUDY    27  27 100 N9        30.21R FOG     WCI  17
GILLAM           N/A     30  30 100 SW6       30.15R FOG     WCI  24
$$
                ***SASKATCHEWAN***

CITY           SKY/WX    TMP DP  RH WIND       PRES   REMARKS
ESTEVAN        CLEAR     39  36  87 S7        30.27F
KINDERSLEY     PTCLDY    43  28  56 S9        30.11F
LLOYDMINSTER   CLEAR     41  25  52 SW7       30.07S
PRINCE ALBERT  CLOUDY    37  34  87 E7        30.13F
REGINA         PTCLDY    43  34  70 S8        30.22F
YORKTON        CLEAR     41  27  56 S7        30.23F
N. BATTLEFORD  CLEAR     37  30  75 SE7       30.10F
LA RONGE       MOCLDY    41  34  75 S3        30.08S
SASKATOON      CLOUDY    41  34  75 S9        30.14S
SWIFT CURRENT  CLEAR     46  30  53 S22G29    30.16S
$$
NOTE: THESE ARE AUTOMATED STATIONS WITH LIMITED QUALITY CONTROL
      "FAIR" INDICATES FEW OR NO CLOUDS BELOW 12,000 FEET WITH NO
      SIGNIFICANT WEATHER AND/OR OBSTRUCTIONS TO VISIBILITY.
      SKY/WX - SKY CONDITION AND SIGNIFICANT WEATHER.
      TMP - AIR TEMPERATURE.    DP   - DEWPOINT TEMPERATURE.
      RH  - RELATIVE HUMIDITY.  PRES - PRESSURE.
      HX  - HEAT INDEX.         WCI  - WIND CHILL INDEX.
$



USA.gov is the U.S. government's official web portal to all federal, state and local government web resources and services.